TimeCST,TemperatureF,Dew PointF,Humidity,Sea Level PressureIn,VisibilityMPH,Wind Direction,Wind SpeedMPH,Gust SpeedMPH,PrecipitationIn,Events,Conditions,WindDirDegrees,DateUTC
12:15 AM,21.2,17.2,85,30.25,10.0,WNW,6.9,-,N/A,,Clear,290,2014-01-15 06:15:00
12:35 AM,20.5,17.1,87,30.24,10.0,WNW,6.9,-,N/A,,Mostly Cloudy,290,2014-01-15 06:35:00
12:55 AM,20.8,16.7,84,30.24,10.0,WNW,8.1,-,N/A,,Mostly Cloudy,290,2014-01-15 06:55:00
1:15 AM,19.4,15.8,86,30.23,10.0,WNW,6.9,-,N/A,,Mostly Cloudy,290,2014-01-15 07:15:00
1:35 AM,19.8,16.2,86,30.22,10.0,WNW,8.1,-,N/A,,Scattered Clouds,290,2014-01-15 07:35:00
1:55 AM,19.2,15.6,86,30.22,10.0,WNW,8.1,-,N/A,,Clear,300,2014-01-15 07:55:00
2:15 AM,18.3,15.4,89,30.21,10.0,WNW,6.9,-,N/A,,Scattered Clouds,290,2014-01-15 08:15:00
2:35 AM,18.3,15.4,89,30.22,10.0,WNW,6.9,-,N/A,,Clear,290,2014-01-15 08:35:00
2:55 AM,18.5,15.8,89,30.21,10.0,WNW,6.9,-,N/A,,Clear,300,2014-01-15 08:55:00
3:15 AM,17.1,14.0,88,30.20,10.0,NW,6.9,-,N/A,,Clear,320,2014-01-15 09:15:00
3:35 AM,16.7,14.0,89,30.20,10.0,NW,5.8,-,N/A,,Clear,320,2014-01-15 09:35:00
3:55 AM,16.0,13.5,90,30.20,10.0,NW,4.6,-,N/A,,Clear,320,2014-01-15 09:55:00
4:15 AM,15.6,12.9,89,30.19,10.0,WSW,4.6,-,N/A,,Clear,250,2014-01-15 10:15:00
4:35 AM,15.6,13.1,90,30.18,10.0,West,6.9,-,N/A,,Scattered Clouds,280,2014-01-15 10:35:00
4:55 AM,17.4,14.9,90,30.18,10.0,West,6.9,-,N/A,,Overcast,260,2014-01-15 10:55:00
5:15 AM,20.1,17.4,89,30.17,10.0,West,5.8,-,N/A,,Overcast,280,2014-01-15 11:15:00
5:35 AM,21.7,18.9,89,30.17,10.0,West,5.8,-,N/A,,Overcast,270,2014-01-15 11:35:00
5:55 AM,23.0,19.9,88,30.16,10.0,West,5.8,-,N/A,,Overcast,270,2014-01-15 11:55:00
6:15 AM,24.4,20.7,86,30.16,10.0,WSW,3.5,-,N/A,,Overcast,240,2014-01-15 12:15:00
6:35 AM,25.2,21.2,85,30.15,10.0,Calm,Calm,-,N/A,,Overcast,0,2014-01-15 12:35:00
6:55 AM,25.7,21.4,84,30.13,10.0,SW,3.5,-,N/A,,Overcast,230,2014-01-15 12:55:00
7:15 AM,26.4,22.3,84,30.13,10.0,Calm,Calm,-,N/A,,Overcast,0,2014-01-15 13:15:00
7:35 AM,28.4,23.4,81,30.13,10.0,SW,4.6,-,N/A,,Overcast,230,2014-01-15 13:35:00
7:55 AM,28.6,22.5,78,30.11,10.0,SW,5.8,-,N/A,,Overcast,220,2014-01-15 13:55:00
8:15 AM,29.1,22.6,77,30.09,10.0,SW,9.2,-,N/A,,Overcast,230,2014-01-15 14:15:00
8:35 AM,30.0,22.8,75,30.10,10.0,SW,5.8,-,N/A,,Overcast,230,2014-01-15 14:35:00
8:55 AM,30.6,22.8,73,30.10,10.0,SW,8.1,-,N/A,,Overcast,230,2014-01-15 14:55:00
9:15 AM,31.3,23.2,72,30.08,10.0,SW,9.2,-,N/A,,Overcast,220,2014-01-15 15:15:00
9:35 AM,32.4,23.4,69,30.07,10.0,SW,9.2,-,N/A,,Overcast,230,2014-01-15 15:35:00
9:55 AM,33.6,23.7,67,30.07,10.0,SW,5.8,-,N/A,,Overcast,230,2014-01-15 15:55:00
10:10 AM,34.9,23.9,64,30.07,10.0,WSW,6.9,-,N/A,,Overcast,240,2014-01-15 16:10:00
10:35 AM,37.4,23.4,57,30.06,10.0,WSW,8.1,-,N/A,,Overcast,240,2014-01-15 16:35:00
10:55 AM,38.5,23.5,55,30.05,10.0,SW,9.2,-,0.03,,Overcast,230,2014-01-15 16:55:00
11:15 AM,39.4,23.9,54,30.03,10.0,SW,13.8,34.5,N/A,,Overcast,230,2014-01-15 17:15:00
11:35 AM,40.5,24.8,54,30.01,10.0,WSW,12.7,-,N/A,,Mostly Cloudy,240,2014-01-15 17:35:00
11:55 AM,41.7,25.7,53,29.99,10.0,WSW,11.5,-,N/A,,Scattered Clouds,240,2014-01-15 17:55:00
12:15 PM,43.5,26.1,50,29.98,10.0,WSW,11.5,16.1,N/A,,Clear,250,2014-01-15 18:15:00
12:35 PM,46.2,25.9,45,29.95,10.0,WSW,13.8,21.9,N/A,,Clear,250,2014-01-15 18:35:00
12:55 PM,47.5,25.7,43,29.93,10.0,WSW,13.8,21.9,N/A,,Clear,250,2014-01-15 18:55:00
1:15 PM,48.9,25.5,40,29.91,10.0,West,11.5,-,N/A,,Clear,260,2014-01-15 19:15:00
1:35 PM,51.1,24.6,36,29.89,10.0,West,19.6,-,N/A,,Scattered Clouds,280,2014-01-15 19:35:00
1:55 PM,52.3,24.6,34,29.87,10.0,West,16.1,21.9,N/A,,Overcast,270,2014-01-15 19:55:00
2:15 PM,55.4,25.5,32,29.86,10.0,West,15.0,21.9,N/A,,Overcast,280,2014-01-15 20:15:00
2:35 PM,55.4,24.6,30,29.85,10.0,WNW,19.6,-,N/A,,Overcast,290,2014-01-15 20:35:00
2:55 PM,55.2,23.7,30,29.84,10.0,West,17.3,25.3,N/A,,Overcast,280,2014-01-15 20:55:00
3:15 PM,55.2,23.7,30,29.84,10.0,West,21.9,26.5,N/A,,Scattered Clouds,280,2014-01-15 21:15:00
3:40 PM,56.1,23.9,29,29.84,10.0,WNW,18.4,25.3,N/A,,Scattered Clouds,290,2014-01-15 21:40:00
3:55 PM,55.2,23.2,29,29.84,10.0,West,21.9,27.6,N/A,,Mostly Cloudy,280,2014-01-15 21:55:00
4:15 PM,54.9,23.5,30,29.84,10.0,WNW,16.1,-,N/A,,Scattered Clouds,290,2014-01-15 22:15:00
4:35 PM,54.5,23.5,30,29.83,10.0,WNW,16.1,-,N/A,,Clear,300,2014-01-15 22:35:00
4:55 PM,52.7,23.2,32,29.83,10.0,West,10.4,-,N/A,,Scattered Clouds,280,2014-01-15 22:55:00
5:15 PM,51.4,23.0,33,29.83,10.0,WNW,8.1,-,N/A,,Mostly Cloudy,290,2014-01-15 23:15:00
5:35 PM,48.6,23.0,37,29.83,10.0,WNW,9.2,-,N/A,,Mostly Cloudy,290,2014-01-15 23:35:00
5:55 PM,44.8,22.5,41,29.83,10.0,West,8.1,-,N/A,,Scattered Clouds,280,2014-01-15 23:55:00
6:15 PM,44.4,23.0,43,29.83,10.0,NW,9.2,-,N/A,,Clear,310,2014-01-16 00:15:00
6:40 PM,42.3,23.2,47,29.85,10.0,NW,11.5,-,N/A,,Clear,310,2014-01-16 00:40:00
6:55 PM,44.6,23.0,43,29.85,10.0,NW,10.4,-,N/A,,Scattered Clouds,320,2014-01-16 00:55:00
7:15 PM,42.1,23.2,47,29.86,10.0,NW,11.5,-,N/A,,Mostly Cloudy,320,2014-01-16 01:15:00
7:35 PM,46.6,24.4,42,29.86,10.0,NW,9.2,-,N/A,,Overcast,320,2014-01-16 01:35:00
7:55 PM,43.9,24.8,47,29.85,10.0,NW,8.1,-,N/A,,Mostly Cloudy,320,2014-01-16 01:55:00
8:15 PM,39.2,23.7,54,29.85,10.0,West,5.8,-,N/A,,Scattered Clouds,280,2014-01-16 02:15:00
8:35 PM,34.7,21.0,57,29.86,10.0,West,8.1,-,N/A,,Clear,280,2014-01-16 02:35:00
8:55 PM,32.9,21.7,64,29.85,10.0,West,9.2,-,N/A,,Clear,270,2014-01-16 02:55:00
9:15 PM,32.0,21.9,66,29.86,10.0,West,10.4,-,N/A,,Clear,280,2014-01-16 03:15:00
9:35 PM,31.6,21.4,66,29.86,10.0,West,9.2,-,N/A,,Clear,270,2014-01-16 03:35:00
9:55 PM,31.1,20.8,66,29.87,10.0,West,8.1,-,N/A,,Clear,270,2014-01-16 03:55:00
10:15 PM,27.3,19.4,72,29.87,10.0,West,9.2,-,N/A,,Scattered Clouds,270,2014-01-16 04:15:00
10:35 PM,28.2,19.9,71,29.87,10.0,WNW,8.1,-,N/A,,Mostly Cloudy,290,2014-01-16 04:35:00
10:55 PM,34.3,24.1,66,29.89,10.0,WNW,12.7,-,N/A,,Overcast,300,2014-01-16 04:55:00
11:15 PM,37.6,24.6,60,29.90,10.0,WNW,11.5,-,N/A,,Overcast,300,2014-01-16 05:15:00
11:35 PM,34.0,23.2,65,29.90,10.0,WNW,9.2,-,N/A,,Scattered Clouds,290,2014-01-16 05:35:00
11:55 PM,31.6,22.6,69,29.89,10.0,West,8.1,-,N/A,,Clear,280,2014-01-16 05:55:00